TimeEST,TemperatureF,Dew PointF,Humidity,Sea Level PressureIn,VisibilityMPH,Wind Direction,Wind SpeedMPH,Gust SpeedMPH,PrecipitationIn,Events,Conditions,WindDirDegrees,DateUTC
12:54 AM,59.0,54.0,83,29.97,10.0,South,13.8,-,N/A,,Mostly Cloudy,190,2012-12-04 05:54:00
1:54 AM,59.0,53.1,81,29.96,10.0,SSW,16.1,-,N/A,,Mostly Cloudy,200,2012-12-04 06:54:00
2:54 AM,59.0,52.0,78,29.97,10.0,SSW,11.5,-,N/A,,Mostly Cloudy,200,2012-12-04 07:54:00
3:54 AM,57.9,51.1,78,29.96,10.0,SSW,13.8,-,N/A,,Mostly Cloudy,200,2012-12-04 08:54:00
4:54 AM,57.9,52.0,81,29.96,10.0,SSW,12.7,-,N/A,,Overcast,210,2012-12-04 09:54:00
5:54 AM,59.0,52.0,78,29.96,10.0,SSW,12.7,-,N/A,,Overcast,210,2012-12-04 10:54:00
6:03 AM,59.0,51.8,77,29.96,10.0,SSW,12.7,-,N/A,,Overcast,210,2012-12-04 11:03:00
6:54 AM,57.9,54.0,87,29.98,7.0,SW,12.7,-,0.01,Rain,Light Rain,230,2012-12-04 11:54:00
7:54 AM,57.9,54.0,87,29.99,10.0,WSW,11.5,-,0.01,,Overcast,250,2012-12-04 12:54:00
8:21 AM,55.4,55.4,100,30.01,4.0,NW,19.6,23.0,0.00,Rain,Light Rain,320,2012-12-04 13:21:00
8:26 AM,53.6,51.8,94,30.01,7.0,NW,18.4,23.0,0.00,,Overcast,320,2012-12-04 13:26:00
8:37 AM,51.8,50.0,94,30.01,6.0,NW,9.2,-,0.00,,Overcast,320,2012-12-04 13:37:00
8:54 AM,50.0,48.9,96,30.03,8.0,NNW,12.7,-,0.00,,Overcast,340,2012-12-04 13:54:00
9:01 AM,50.0,48.2,94,30.03,8.0,NNW,11.5,-,N/A,,Overcast,330,2012-12-04 14:01:00
9:54 AM,48.9,46.9,93,30.05,10.0,NW,11.5,-,0.01,,Overcast,320,2012-12-04 14:54:00
10:19 AM,48.2,46.4,93,30.06,9.0,NNW,9.2,-,0.00,Rain,Light Rain,340,2012-12-04 15:19:00
10:54 AM,46.9,46.0,97,30.06,7.0,NNW,11.5,-,0.02,Rain,Light Rain,330,2012-12-04 15:54:00
11:02 AM,46.4,44.6,93,30.06,7.0,NNW,10.4,-,0.01,Rain,Light Rain,330,2012-12-04 16:02:00
11:54 AM,46.9,44.1,90,30.07,10.0,Calm,Calm,-,0.02,Rain,Light Rain,0,2012-12-04 16:54:00
12:54 PM,46.9,44.1,90,30.06,10.0,WNW,3.5,-,0.01,Rain,Light Rain,290,2012-12-04 17:54:00
1:54 PM,46.9,44.1,90,30.07,10.0,West,6.9,-,0.01,Rain,Light Rain,260,2012-12-04 18:54:00
2:54 PM,48.0,44.1,86,30.07,10.0,West,8.1,-,0.00,Rain,Light Rain,270,2012-12-04 19:54:00
3:54 PM,48.9,44.1,83,30.08,10.0,West,6.9,-,0.00,,Overcast,280,2012-12-04 20:54:00
4:54 PM,48.0,45.0,89,30.12,10.0,West,6.9,-,N/A,,Mostly Cloudy,260,2012-12-04 21:54:00
5:54 PM,44.1,41.0,89,30.13,10.0,WSW,5.8,-,N/A,,Mostly Cloudy,250,2012-12-04 22:54:00
6:54 PM,43.0,39.9,89,30.14,10.0,WSW,6.9,-,N/A,,Mostly Cloudy,240,2012-12-04 23:54:00
7:54 PM,41.0,37.9,89,30.15,10.0,WSW,6.9,-,N/A,,Mostly Cloudy,240,2012-12-05 00:54:00
8:54 PM,42.1,39.0,89,30.17,10.0,WSW,9.2,-,N/A,,Scattered Clouds,240,2012-12-05 01:54:00
9:54 PM,41.0,37.9,89,30.17,10.0,WSW,9.2,-,N/A,,Partly Cloudy,240,2012-12-05 02:54:00
10:54 PM,39.9,36.0,86,30.19,10.0,WSW,8.1,-,N/A,,Partly Cloudy,240,2012-12-05 03:54:00
11:54 PM,39.9,35.1,83,30.21,10.0,West,6.9,-,N/A,,Partly Cloudy,260,2012-12-05 04:54:00